Regional Weather Roundup
Issued by NWS

Home | Current Version | Previous Version | Graphics & Text | Print | Product List | Glossary On
Versions: 1 2 3 4 5 6 7 8 9 10 11 12 13 14 15 16 17 18 19 20 21 22 23 24 25 26 27 28 29 30 31 32 33 34 35 36 37 38 39 40 41 42 43 44 45 46 47 48 49 50
000
ASUS43 KDTX 310710
RWRMI
MICHIGAN HOURLY REGIONAL WEATHER ROUNDUP
NATIONAL WEATHER SERVICE DETROIT/PONTIAC MI
300 AM EDT TUE MAY 31 2016

NOTE: "FAIR" INDICATES FEW OR NO CLOUDS BELOW 12,000 FEET WITH NO
SIGNIFICANT WEATHER AND/OR OBSTRUCTION TO VISIBILITY.

MIZ047>049-052>055-059>063-066>070-074>076-081>083-310800-
SOUTHEAST LOWER MICHIGAN

CITY           SKY/WX    TMP DP  RH WIND       PRES   REMARKS
ADRIAN         CLEAR     59  54  83 CALM      30.00S
ALMA           PTCLDY    51  50  95 CALM      30.01S
ANN ARBOR      CLEAR     61  51  70 CALM      29.99S
BAD AXE        CLEAR     49  49  97 CALM      30.00S
CARO           CLOUDY    50  49  97 CALM      29.99S
DETROIT CITY   CLEAR     67  51  56 N7        29.97S
DETROIT        PTCLDY    65  53  65 N3        29.98S
FLINT          CLEAR     58  51  78 CALM      30.00S
GROSSE ILE     PTCLDY    63  57  82 CALM      29.96S
HILLSDALE      CLEAR     59  53  80 CALM      30.01S
HOWELL         CLEAR     61  51  68 CALM      30.00S

CITY           SKY/WX    TMP DP  RH WIND       PRES   REMARKS
JACKSON        PTCLDY    58  54  86 CALM      30.01S
LAMBERTVILLE   CLEAR     60  55  82 CALM      29.98S
LANSING        CLEAR     57  53  86 CALM      30.01S
LAPEER         FAIR      55  53  92 SW9       30.00S
MASON          CLEAR     57  54  88 CALM      30.01S
MONROE         PTCLDY    64  55  71 CALM      29.97S
PONTIAC        CLEAR     63  50  62 N3        29.99S
PORT HOPE        N/A     56  55  97 CALM      29.98R
PORT HURON     CLEAR     61  55  82 CALM      29.99R
TRI CITIES     CLEAR     58  50  75 W5        30.01R
MIDLAND        FAIR      51  49  95 CALM      30.00S
TROY           CLEAR     68  49  50 N5        30.00S
SAGINAW HB     CLEAR     55  46  71 CALM      29.99S
$$
MIZ043>046-050>051-056>058-064>065-071>073-077>080-310800-
SOUTHWEST LOWER MICHIGAN

CITY           SKY/WX    TMP DP  RH WIND       PRES   REMARKS
BATTLE CREEK   CLEAR     60  54  80 CALM      30.02S
BENTON HARBOR  CLOUDY    59  55  87 CALM      30.00R
BIG RAPIDS     CLEAR     53  51  95 CALM      30.01S
COLDWATER      CLEAR     56  55  95 CALM      30.01S
FREMONT        FAIR      55  55 100 CALM      30.00S
HOLLAND        CLOUDY    56  55  97 CALM      30.01S
GRAND RAPIDS   PTCLDY    59  54  83 CALM      30.02R
IONIA          FAIR      58  52  79 CALM      30.01S
KALAMAZOO      CLEAR     59  54  83 CALM      30.01S
LUDINGTON      FOG       51  51 100 CALM      30.00F VSB 1/2
MARSHALL       CLEAR     57  56  94 CALM      30.00S
MOUNT PLEASANT CLEAR     53  51  92 CALM      30.01R
MUSKEGON         N/A     60  55  83 CALM      30.01R
SOUTH HAVEN    CLOUDY    57  56  96 CALM      30.01R
$$
MIZ016>042-310800-
NORTHERN LOWER MICHIGAN

CITY           SKY/WX    TMP DP  RH WIND       PRES   REMARKS
ALPENA         CLEAR     54  49  83 CALM      30.00R
BEAVER ISLAND  CLEAR     52  48  84 N8        30.04R
BELLAIRE       CLEAR     51  49  95 CALM      30.03R
CADILLAC       PTCLDY    51  47  87 CALM      30.03S
CHARLEVOIX     CLEAR     54  51  89 N8        30.06R
FRANKFORT      CLOUDY    53  52  94 CALM      30.02R
GAYLORD        CLEAR     55  49  80 CALM      30.03R
GRAYLING       CLEAR     49  47  93 CALM      30.03R
HARBOR SPRINGS CLEAR     54  50  85 CALM      30.03R
HOUGHTON LAKE  CLEAR     51  50  96 CALM      30.03R
OSCODA         CLEAR     54  48  80 S7        29.99R
PELLSTON       CLEAR     50  48  93 W6        30.03R
ROGERS CITY    CLEAR     54  49  83 W5        30.02R
TRAVERSE CITY  CLEAR     56  52  86 NE5       30.02R
$$
MIZ007>008-015-310800-
EASTERN UPPER MICHIGAN

CITY           SKY/WX    TMP DP  RH WIND       PRES   REMARKS
KINROSS          N/A     48  46  93 NW12      30.01R
MACKINAC ISLAN CLEAR     52  47  82 W7        30.03R
NEWBERRY       CLEAR     45  44  95 N8        30.05R
S. S. MARIE    MOCLDY    47  44  90 NW6       30.01R
MUNISING         N/A     47  43  86 NW12      30.07S
$$
MIZ004>006-011>014-085-310800-
CENTRAL UPPER MICHIGAN

CITY           SKY/WX    TMP DP  RH WIND       PRES   REMARKS
MANISTIQUE     CLEAR     47  44  89 N8        30.05R
ESCANABA         N/A     52  43  71 NE7       30.05S
MENOMINEE      MOCLDY    56  48  74 NE10      30.03S
SAWYER-GWINN   CLEAR     44  40  85 N12       30.08S
$$
MIZ001>003-009>011-084-310800-
WESTERN UPPER MICHIGAN

CITY           SKY/WX    TMP DP  RH WIND       PRES   REMARKS
IRON MOUNTAIN  CLOUDY    50  45  83 NE6       30.05S
HOUGHTON       CLOUDY    45  41  86 E7        30.09R
COPPER HARBOR    N/A     45  41  86 VRB3      30.11R
IRONWOOD       CLOUDY    55  50  82 E10G18    29.99F
$$

ABBREVIATIONS USED IN REMARKS
   TC - TEMPERATURE IN CELSIUS
  WCI - WIND CHILL INDEX
   HX - HEAT INDEX
  VSB - VISIBILITY





USA.gov is the U.S. government's official web portal to all federal, state and local government web resources and services.